Location: Great Falls
(47.5000°N, 111.3000°W)
Time: 06:46:24
(UTC-07:00)

Envisat - Visible Passes

Search period start: 21 January 2019 00:00
Search period end: 31 January 2019 00:00
Orbit: 764 x 766 km, 98.2° (Epoch: 20 January)

Date Brightness Start Highest point End Pass type
(mag) Time Alt. Az. Time Alt. Az. Time Alt. Az.
21 Jan 2.9 18:47:41 10° SSE 18:52:43 69° ENE 18:57:47 10° N visible
21 Jan 5.7 20:28:58 10° SW 20:32:16 17° W 20:35:34 10° NW visible
22 Jan 5.9 06:54:14 10° NE 06:57:47 19° E 07:01:19 10° SE visible
22 Jan 3.6 18:11:36 10° SE 18:16:09 34° ENE 18:20:44 10° N visible
22 Jan 4.5 19:50:32 10° SSW 19:55:09 35° W 19:59:49 10° NNW visible
23 Jan 3.2 19:13:11 10° S 19:18:15 73° WSW 19:23:22 10° NNW visible
24 Jan 5.2 07:19:04 10° NNE 07:23:35 31° E 07:28:03 10° SSE visible
24 Jan 3.0 18:36:36 10° SSE 18:41:33 56° ENE 18:46:32 10° N visible
24 Jan 5.4 20:17:06 10° SW 20:20:55 21° W 20:24:47 10° NW visible
25 Jan 6.0 06:43:32 10° NE 06:46:26 15° E 06:49:19 10° ESE visible
25 Jan 3.8 18:00:45 10° ESE 18:05:02 29° ENE 18:09:21 10° N visible
25 Jan 4.1 19:39:04 10° S 19:43:53 43° W 19:48:44 10° NNW visible
26 Jan 2.9 19:01:57 10° SSE 19:07:02 89° WSW 19:12:10 10° NNW visible
26 Jan 6.0 20:44:39 10° WSW 20:46:48 13° W 20:48:57 10° WNW visible
27 Jan 5.6 07:08:06 10° NE 07:12:17 25° E 07:16:26 10° SSE visible
27 Jan 3.2 18:25:35 10° SE 18:30:24 45° ENE 18:35:14 10° N visible
27 Jan 5.1 20:05:23 10° SSW 20:09:37 26° W 20:13:52 10° NW visible
28 Jan 6.3 06:33:10 10° ENE 06:35:04 12° E 06:36:59 10° ESE visible
28 Jan 4.0 17:49:58 10° ESE 17:53:57 24° ENE 17:57:56 10° N visible
28 Jan 3.7 19:27:40 10° S 19:32:38 54° W 19:37:37 10° NNW visible
29 Jan 2.9 18:50:47 10° SSE 18:55:51 75° ENE 19:00:57 10° N visible
29 Jan 5.8 20:32:25 10° SW 20:35:27 16° W 20:38:30 10° NW visible
30 Jan 5.9 06:57:12 10° NE 07:00:58 20° E 07:04:42 10° SE visible
30 Jan 3.5 18:14:37 10° SE 18:19:15 37° ENE 18:23:55 10° N visible
30 Jan 4.7 19:53:48 10° SSW 19:58:19 32° W 20:02:53 10° NNW visible
